{"data":{"norad_id":57443,"intl_designator":"2023-105P","name":"STARLINK-30197","alt_names":[],"object_type":"PAYLOAD","status":"ACTIVE","operator":null,"country":"US","launch_date":"2023-07-24","launch_site_code":"AFETR","launch_vehicle":null,"mission":null,"orbit_class":"UNKNOWN","rcs_meters":null,"size_class":null,"mass_kg":null,"dimensions":null,"purposes":["comms"],"wikipedia_slug":null,"has_3d_model":false,"image_url":null,"decayed_at":null,"tle_current":{"epoch":"2026-05-25T03:04:23.188224Z","epoch_age_seconds":61043,"freshness":"FRESH","line1":"1 57443U 23105P   26145.12804616  .00001043  00000+0  47404-4 0  9990","line2":"2 57443  43.0003 188.0315 0001267 264.7239  95.3468 15.27579310157277","mean_motion":15.2757931,"eccentricity":0.0001267,"inclination_deg":43.0003,"raan_deg":188.0315,"arg_perigee_deg":264.7239,"mean_anomaly_deg":95.3468,"bstar":4.7404e-5,"rev_number":15727,"period_min":94.266791293475,"perigee_km":482.18184960851,"apogee_km":483.9204746888,"semimajor_km":6861.1881621487,"source":"CELESTRAK","updated_at":"2026-05-25T13:38:18.320712Z"}}}